Location: Brno
(49.2000°N, 16.6330°E)
Time: 17:23:20
(UTC+01:00)

Cosmos 2227 - Visible Passes

Search period start: 22 December 2014 00:00
Search period end: 01 January 2015 00:00
Orbit: 836 x 861 km, 71.0° (Epoch: 22 December)

Date Brightness Start Highest point End Pass type
(mag) Time Alt. Az. Time Alt. Az. Time Alt. Az.
22 Dec 5.2 16:39:19 10° SSE 16:44:05 29° ESE 16:48:51 10° NE visible
22 Dec 4.8 18:22:28 10° SW 18:28:00 54° NW 18:31:20 24° NNE visible
22 Dec 6.6 20:10:21 10° WNW 20:13:18 15° NW 20:13:18 15° NW visible
23 Dec 4.8 18:09:25 10° SW 18:14:57 55° NW 18:18:57 19° NNE visible
23 Dec 6.5 19:57:16 10° WNW 20:00:29 15° NNW 20:00:55 15° NNW visible
24 Dec 4.8 17:56:23 10° SW 18:01:55 55° NW 18:06:30 15° NNE visible
24 Dec 6.5 19:44:11 10° WNW 19:47:26 15° NNW 19:48:28 15° NNW visible
25 Dec 4.8 17:43:20 10° SW 17:48:52 56° NW 17:54:01 12° NNE visible
25 Dec 6.5 19:31:06 10° WNW 19:34:23 16° NNW 19:35:59 14° NNW visible
26 Dec 4.8 17:30:17 10° SW 17:35:50 57° WNW 17:41:23 10° NNE visible
26 Dec 6.5 19:18:01 10° WNW 19:21:20 16° NNW 19:23:28 13° N visible
27 Dec 4.8 17:17:14 10° SW 17:22:47 57° WNW 17:28:21 10° NNE visible
27 Dec 6.5 19:04:56 10° WNW 19:08:16 16° NNW 19:10:54 12° N visible
28 Dec 4.7 17:04:11 10° SW 17:09:45 58° WNW 17:15:19 10° NNE visible
28 Dec 6.5 18:51:51 10° WNW 18:55:13 16° NNW 18:58:19 11° N visible
29 Dec 4.7 16:51:09 10° SW 16:56:42 59° WNW 17:02:16 10° NNE visible
29 Dec 6.5 18:38:45 10° WNW 18:42:09 16° NNW 18:45:34 10° N visible
30 Dec 4.7 16:38:06 10° SW 16:43:39 60° WNW 16:49:14 10° NNE visible
30 Dec 6.5 18:25:40 10° WNW 18:29:06 16° NW 18:32:32 10° N visible
31 Dec 6.4 18:12:35 10° WNW 18:16:02 16° NW 18:19:30 10° N visible
